Year,Month,Day,Hour,Minute,Value (Times are PST for temperature in C)
2019,08,01,00,00,17.10
2019,08,01,00,01,17.10
2019,08,01,00,02,17.10
2019,08,01,00,03,17.00
2019,08,01,00,04,16.90
2019,08,01,00,05,16.90
2019,08,01,00,06,16.90
2019,08,01,00,07,16.90
2019,08,01,00,08,16.80
2019,08,01,00,09,16.80
2019,08,01,00,10,16.80
2019,08,01,00,11,16.80
2019,08,01,00,12,16.70
2019,08,01,00,13,16.70
2019,08,01,00,14,16.70
2019,08,01,00,15,16.70
2019,08,01,00,16,16.70
2019,08,01,00,17,16.70
2019,08,01,00,18,16.70
2019,08,01,00,19,16.70
2019,08,01,00,20,16.60
2019,08,01,00,21,16.60
2019,08,01,00,22,16.60
2019,08,01,00,23,16.60
2019,08,01,00,24,16.60
2019,08,01,00,25,16.60
2019,08,01,00,26,16.60
2019,08,01,00,27,16.60
2019,08,01,00,28,16.60
2019,08,01,00,29,16.60
2019,08,01,00,30,16.60
2019,08,01,00,31,16.60
2019,08,01,00,32,16.50
2019,08,01,00,33,16.50
2019,08,01,00,34,16.40
2019,08,01,00,35,16.40
2019,08,01,00,36,16.40
2019,08,01,00,37,16.40
2019,08,01,00,38,16.40
2019,08,01,00,39,16.40
2019,08,01,00,40,16.40
2019,08,01,00,41,16.40
2019,08,01,00,42,16.40
2019,08,01,00,43,16.40
2019,08,01,00,44,16.40
2019,08,01,00,45,16.40
2019,08,01,00,46,16.40
2019,08,01,00,47,16.40
2019,08,01,00,48,16.30
2019,08,01,00,49,16.30
2019,08,01,00,50,16.30
2019,08,01,00,51,16.20
2019,08,01,00,52,16.20
2019,08,01,00,53,16.20
2019,08,01,00,54,16.20
2019,08,01,00,55,16.10
2019,08,01,00,56,16.10
2019,08,01,00,57,16.10
2019,08,01,00,58,16.10
2019,08,01,00,59,16.10
2019,08,01,01,00,16.10
2019,08,01,01,01,16.10
2019,08,01,01,02,16.10
2019,08,01,01,03,16.20
2019,08,01,01,04,16.20
2019,08,01,01,05,16.20
2019,08,01,01,06,16.20
2019,08,01,01,07,16.20
2019,08,01,01,08,16.20
2019,08,01,01,09,16.20
2019,08,01,01,10,16.20
2019,08,01,01,11,16.20
2019,08,01,01,12,16.20
2019,08,01,01,13,16.20
2019,08,01,01,14,16.20
2019,08,01,01,15,16.20
2019,08,01,01,16,16.20
2019,08,01,01,17,16.20
2019,08,01,01,18,16.20
2019,08,01,01,19,16.10
2019,08,01,01,20,16.10
2019,08,01,01,21,16.10
2019,08,01,01,22,16.10
2019,08,01,01,23,16.00
2019,08,01,01,24,16.00
2019,08,01,01,25,16.00
2019,08,01,01,26,16.00
2019,08,01,01,27,16.00
2019,08,01,01,28,15.90
2019,08,01,01,29,15.90
2019,08,01,01,30,15.90
2019,08,01,01,31,15.90
2019,08,01,01,32,15.90
2019,08,01,01,33,15.90
2019,08,01,01,34,15.90
2019,08,01,01,35,15.90
2019,08,01,01,36,15.90
2019,08,01,01,37,15.90
2019,08,01,01,38,16.00
2019,08,01,01,39,16.00
2019,08,01,01,40,16.00
2019,08,01,01,41,16.10
2019,08,01,01,42,16.10
2019,08,01,01,43,16.10
2019,08,01,01,44,16.00
2019,08,01,01,45,16.00
2019,08,01,01,46,16.00
2019,08,01,01,47,16.00
2019,08,01,01,48,16.00
2019,08,01,01,49,16.10
2019,08,01,01,50,16.10
2019,08,01,01,51,16.10
2019,08,01,01,52,16.10
2019,08,01,01,53,16.10
2019,08,01,01,54,16.10
2019,08,01,01,55,16.10
2019,08,01,01,56,16.10
2019,08,01,01,57,16.10
2019,08,01,01,58,16.10
2019,08,01,01,59,16.10
2019,08,01,02,00,16.10
2019,08,01,02,01,16.20
2019,08,01,02,02,16.20
2019,08,01,02,03,16.20
2019,08,01,02,04,16.20
2019,08,01,02,05,16.20
2019,08,01,02,06,16.20
2019,08,01,02,07,16.30
2019,08,01,02,08,16.20
2019,08,01,02,09,16.20
2019,08,01,02,10,16.20
2019,08,01,02,11,16.20
2019,08,01,02,12,16.30
2019,08,01,02,13,16.30
2019,08,01,02,14,16.30
2019,08,01,02,15,16.30
2019,08,01,02,16,16.30
2019,08,01,02,17,16.30
2019,08,01,02,18,16.30
2019,08,01,02,19,16.40
2019,08,01,02,20,16.40
2019,08,01,02,21,16.40
2019,08,01,02,22,16.40
2019,08,01,02,23,16.40
2019,08,01,02,24,16.40
2019,08,01,02,25,16.40
2019,08,01,02,26,16.40
2019,08,01,02,27,16.40
2019,08,01,02,28,16.40
2019,08,01,02,29,16.30
2019,08,01,02,30,16.30
2019,08,01,02,31,16.30
2019,08,01,02,32,16.30
2019,08,01,02,33,16.30
2019,08,01,02,34,16.30
2019,08,01,02,35,16.30
2019,08,01,02,36,16.30
2019,08,01,02,37,16.20
2019,08,01,02,38,16.20
2019,08,01,02,39,16.20
2019,08,01,02,40,16.20
2019,08,01,02,41,16.20
2019,08,01,02,42,16.20
2019,08,01,02,43,16.10
2019,08,01,02,44,16.10
2019,08,01,02,45,16.10
2019,08,01,02,46,16.10
2019,08,01,02,47,16.20
2019,08,01,02,48,16.20
2019,08,01,02,49,16.30
2019,08,01,02,50,16.30
2019,08,01,02,51,16.30
2019,08,01,02,52,16.30
2019,08,01,02,53,16.30
2019,08,01,02,54,16.40
2019,08,01,02,55,16.50
2019,08,01,02,56,16.50
2019,08,01,02,57,16.60
2019,08,01,02,58,16.60
2019,08,01,02,59,16.70
2019,08,01,03,00,16.70
2019,08,01,03,01,16.80
2019,08,01,03,02,16.80
2019,08,01,03,03,16.80
2019,08,01,03,04,16.90
2019,08,01,03,05,16.90
2019,08,01,03,06,16.90
2019,08,01,03,07,17.00
2019,08,01,03,08,17.00
2019,08,01,03,09,17.00
2019,08,01,03,10,17.00
2019,08,01,03,11,17.00
2019,08,01,03,12,16.90
2019,08,01,03,13,16.90
2019,08,01,03,14,16.80
2019,08,01,03,15,16.80
2019,08,01,03,16,16.80
2019,08,01,03,17,16.80
2019,08,01,03,18,16.80
2019,08,01,03,19,16.80
2019,08,01,03,20,16.70
2019,08,01,03,21,16.70
2019,08,01,03,22,16.70
2019,08,01,03,23,16.60
2019,08,01,03,24,16.60
2019,08,01,03,25,16.60
2019,08,01,03,26,16.50
2019,08,01,03,27,16.50
2019,08,01,03,28,16.40
2019,08,01,03,29,16.40
2019,08,01,03,30,16.40
2019,08,01,03,31,16.40
2019,08,01,03,32,16.30
2019,08,01,03,33,16.30
2019,08,01,03,34,16.30
2019,08,01,03,35,16.30
2019,08,01,03,36,16.30
2019,08,01,03,37,16.30
2019,08,01,03,38,16.30
2019,08,01,03,39,16.30
2019,08,01,03,40,16.30
2019,08,01,03,41,16.30
2019,08,01,03,42,16.30
2019,08,01,03,43,16.30
2019,08,01,03,44,16.30
2019,08,01,03,45,16.30
2019,08,01,03,46,16.30
2019,08,01,03,47,16.30
2019,08,01,03,48,16.30
2019,08,01,03,49,16.30
2019,08,01,03,50,16.20
2019,08,01,03,51,16.20
2019,08,01,03,52,16.20
2019,08,01,03,53,16.20
2019,08,01,03,54,16.20
2019,08,01,03,55,16.20
2019,08,01,03,56,16.20
2019,08,01,03,57,16.20
2019,08,01,03,58,16.10
2019,08,01,03,59,16.10
2019,08,01,04,00,16.10
2019,08,01,04,01,16.10
2019,08,01,04,02,16.10
2019,08,01,04,03,16.10
2019,08,01,04,04,16.00
2019,08,01,04,05,16.00
2019,08,01,04,06,15.90
2019,08,01,04,07,15.90
2019,08,01,04,08,15.90
2019,08,01,04,09,15.90
2019,08,01,04,10,15.90
2019,08,01,04,11,15.80
2019,08,01,04,12,15.80
2019,08,01,04,13,15.80
2019,08,01,04,14,15.80
2019,08,01,04,15,15.80
2019,08,01,04,16,15.80
2019,08,01,04,17,15.80
2019,08,01,04,18,15.80
2019,08,01,04,19,15.80
2019,08,01,04,20,15.80
2019,08,01,04,21,15.80
2019,08,01,04,22,15.80
2019,08,01,04,23,15.80
2019,08,01,04,24,15.80
2019,08,01,04,25,15.80
2019,08,01,04,26,15.80
2019,08,01,04,27,15.80
2019,08,01,04,28,15.80
2019,08,01,04,29,15.80
2019,08,01,04,30,15.80
2019,08,01,04,31,15.80
2019,08,01,04,32,15.70
2019,08,01,04,33,15.70
2019,08,01,04,34,15.70
2019,08,01,04,35,15.70
2019,08,01,04,36,15.70
2019,08,01,04,37,15.70
2019,08,01,04,38,15.70
2019,08,01,04,39,15.70
2019,08,01,04,40,15.70
2019,08,01,04,41,15.70
2019,08,01,04,42,15.60
2019,08,01,04,43,15.70
2019,08,01,04,44,15.60
2019,08,01,04,45,15.60
2019,08,01,04,46,15.60
2019,08,01,04,47,15.60
2019,08,01,04,48,15.60
2019,08,01,04,49,15.60
2019,08,01,04,50,15.60
2019,08,01,04,51,15.60
2019,08,01,04,52,15.60
2019,08,01,04,53,15.60
2019,08,01,04,54,15.60
2019,08,01,04,55,15.60
2019,08,01,04,56,15.60
2019,08,01,04,57,15.60
2019,08,01,04,58,15.60
2019,08,01,04,59,15.60
2019,08,01,05,00,15.60
2019,08,01,05,01,15.60
2019,08,01,05,02,15.60
2019,08,01,05,03,15.60
2019,08,01,05,04,15.60
2019,08,01,05,05,15.60
2019,08,01,05,06,15.60
2019,08,01,05,07,15.60
2019,08,01,05,08,15.60
2019,08,01,05,09,15.60
2019,08,01,05,10,15.60
2019,08,01,05,11,15.70
2019,08,01,05,12,15.70
2019,08,01,05,13,15.70
2019,08,01,05,14,15.70
2019,08,01,05,15,15.70
2019,08,01,05,16,15.70
2019,08,01,05,17,15.70
2019,08,01,05,18,15.80
2019,08,01,05,19,15.80
2019,08,01,05,20,15.80
2019,08,01,05,21,15.90
2019,08,01,05,22,15.90
2019,08,01,05,23,15.90
2019,08,01,05,24,15.90
2019,08,01,05,25,15.90
2019,08,01,05,26,15.90
2019,08,01,05,27,15.90
2019,08,01,05,28,15.90
2019,08,01,05,29,15.90
2019,08,01,05,30,15.90
2019,08,01,05,31,15.80
2019,08,01,05,32,15.80
2019,08,01,05,33,15.80
2019,08,01,05,34,15.80
2019,08,01,05,35,15.80
2019,08,01,05,36,15.80
2019,08,01,05,37,15.80
2019,08,01,05,38,15.80
2019,08,01,05,39,15.80
2019,08,01,05,40,15.80
2019,08,01,05,41,15.80
2019,08,01,05,42,15.90
2019,08,01,05,43,15.90
2019,08,01,05,44,15.90
2019,08,01,05,45,16.00
2019,08,01,05,46,16.00
2019,08,01,05,47,16.00
2019,08,01,05,48,16.10
2019,08,01,05,49,16.10
2019,08,01,05,50,16.10
2019,08,01,05,51,16.10
2019,08,01,05,52,16.10
2019,08,01,05,53,16.10
2019,08,01,05,54,16.10
2019,08,01,05,55,16.10
2019,08,01,05,56,16.10
2019,08,01,05,57,16.10
2019,08,01,05,58,16.10
2019,08,01,05,59,16.10
2019,08,01,06,00,16.10
2019,08,01,06,01,16.00
2019,08,01,06,02,16.00
2019,08,01,06,03,16.00
2019,08,01,06,04,16.00
2019,08,01,06,05,16.00
2019,08,01,06,06,16.00
2019,08,01,06,07,16.00
2019,08,01,06,08,16.00
2019,08,01,06,09,16.00
2019,08,01,06,10,16.00
2019,08,01,06,11,16.00
2019,08,01,06,12,16.00
2019,08,01,06,13,16.00
2019,08,01,06,14,16.00
2019,08,01,06,15,16.00
2019,08,01,06,16,16.00
2019,08,01,06,17,16.10
2019,08,01,06,18,16.10
2019,08,01,06,19,16.10
2019,08,01,06,20,16.10
2019,08,01,06,21,16.10
2019,08,01,06,22,16.10
2019,08,01,06,23,16.20
2019,08,01,06,24,16.20
2019,08,01,06,25,16.20
2019,08,01,06,26,16.20
2019,08,01,06,27,16.20
2019,08,01,06,28,16.20
2019,08,01,06,29,16.20
2019,08,01,06,30,16.30
2019,08,01,06,31,16.30
2019,08,01,06,32,16.30
2019,08,01,06,33,16.30
2019,08,01,06,34,16.30
2019,08,01,06,35,16.30
2019,08,01,06,36,16.30
2019,08,01,06,37,16.30
2019,08,01,06,38,16.30
2019,08,01,06,39,16.30
2019,08,01,06,40,16.30
2019,08,01,06,41,16.30
2019,08,01,06,42,16.30
2019,08,01,06,43,16.30
2019,08,01,06,44,16.40
2019,08,01,06,45,16.40
2019,08,01,06,46,16.40
2019,08,01,06,47,16.40
2019,08,01,06,48,16.50
2019,08,01,06,49,16.50
2019,08,01,06,50,16.50
2019,08,01,06,51,16.60
2019,08,01,06,52,16.60
2019,08,01,06,53,16.60
2019,08,01,06,54,16.60
2019,08,01,06,55,16.70
2019,08,01,06,56,16.70
2019,08,01,06,57,16.70
2019,08,01,06,58,16.70
2019,08,01,06,59,16.70
2019,08,01,07,00,16.80
2019,08,01,07,01,16.80
2019,08,01,07,02,16.80
2019,08,01,07,03,16.90
2019,08,01,07,04,16.90
2019,08,01,07,05,16.90
2019,08,01,07,06,17.00
2019,08,01,07,07,17.00
2019,08,01,07,08,17.10
2019,08,01,07,09,17.10
2019,08,01,07,10,17.20
2019,08,01,07,11,17.20
2019,08,01,07,12,17.20
2019,08,01,07,13,17.30
2019,08,01,07,14,17.30
2019,08,01,07,15,17.40
2019,08,01,07,16,17.40
2019,08,01,07,17,17.40
2019,08,01,07,18,17.50
2019,08,01,07,19,17.50
2019,08,01,07,20,17.50
2019,08,01,07,21,17.50
2019,08,01,07,22,17.50
2019,08,01,07,23,17.50
2019,08,01,07,24,17.60
2019,08,01,07,25,17.60
2019,08,01,07,26,17.60
2019,08,01,07,27,17.60
2019,08,01,07,28,17.70
2019,08,01,07,29,17.70
2019,08,01,07,30,17.70
2019,08,01,07,31,17.70
2019,08,01,07,32,17.70
2019,08,01,07,33,17.70
2019,08,01,07,34,17.70
2019,08,01,07,35,17.70
2019,08,01,07,36,17.70
2019,08,01,07,37,17.70
2019,08,01,07,38,17.70
2019,08,01,07,39,17.70
2019,08,01,07,40,17.70
2019,08,01,07,41,17.70
2019,08,01,07,42,17.70
2019,08,01,07,43,17.70
2019,08,01,07,44,17.70
2019,08,01,07,45,17.70
2019,08,01,07,46,17.70
2019,08,01,07,47,17.70
2019,08,01,07,48,17.70
2019,08,01,07,49,17.70
2019,08,01,07,50,17.70
2019,08,01,07,51,17.70
2019,08,01,07,52,17.70
2019,08,01,07,53,17.70
2019,08,01,07,54,17.80
2019,08,01,07,55,17.80
2019,08,01,07,56,17.80
2019,08,01,07,57,17.80
2019,08,01,07,58,17.80
2019,08,01,07,59,17.80
2019,08,01,08,00,17.80
2019,08,01,08,01,17.80
2019,08,01,08,02,17.90
2019,08,01,08,03,17.90
2019,08,01,08,04,17.90
2019,08,01,08,05,18.00
2019,08,01,08,06,18.00
2019,08,01,08,07,18.10
2019,08,01,08,08,18.10
2019,08,01,08,09,18.10
2019,08,01,08,10,18.10
2019,08,01,08,11,18.10
2019,08,01,08,12,18.20
2019,08,01,08,13,18.20
2019,08,01,08,14,18.20
2019,08,01,08,15,18.30
2019,08,01,08,16,18.30
2019,08,01,08,17,18.30
2019,08,01,08,18,18.30
2019,08,01,08,19,18.30
2019,08,01,08,20,18.40
2019,08,01,08,21,18.40
2019,08,01,08,22,18.40
2019,08,01,08,23,18.50
2019,08,01,08,24,18.50
2019,08,01,08,25,18.60
2019,08,01,08,26,18.60
2019,08,01,08,27,18.60
2019,08,01,08,28,18.70
2019,08,01,08,29,18.70
2019,08,01,08,30,18.80
2019,08,01,08,31,18.80
2019,08,01,08,32,18.80
2019,08,01,08,33,18.80
2019,08,01,08,34,18.90
2019,08,01,08,35,18.90
2019,08,01,08,36,18.90
2019,08,01,08,37,19.00
2019,08,01,08,38,19.00
2019,08,01,08,39,19.10
2019,08,01,08,40,19.10
2019,08,01,08,41,19.10
2019,08,01,08,42,19.20
2019,08,01,08,43,19.20
2019,08,01,08,44,19.20
2019,08,01,08,45,19.30
2019,08,01,08,46,19.30
2019,08,01,08,47,19.30
2019,08,01,08,48,19.40
2019,08,01,08,49,19.40
2019,08,01,08,50,19.40
2019,08,01,08,51,19.40
2019,08,01,08,52,19.40
2019,08,01,08,53,19.50
2019,08,01,08,54,19.50
2019,08,01,08,55,19.50
2019,08,01,08,56,19.60
2019,08,01,08,57,19.60
2019,08,01,08,58,19.60
2019,08,01,08,59,19.60
2019,08,01,09,00,19.60
2019,08,01,09,01,19.60
2019,08,01,09,02,19.60
2019,08,01,09,03,19.60
2019,08,01,09,04,19.60
2019,08,01,09,05,19.60
2019,08,01,09,06,19.60
2019,08,01,09,07,19.50
2019,08,01,09,08,19.50
2019,08,01,09,09,19.60
2019,08,01,09,10,19.60
2019,08,01,09,11,19.60
2019,08,01,09,12,19.60
2019,08,01,09,13,19.60
2019,08,01,09,14,19.60
2019,08,01,09,15,19.60
2019,08,01,09,16,19.70
2019,08,01,09,17,19.70
2019,08,01,09,18,19.70
2019,08,01,09,19,19.70
2019,08,01,09,20,19.70
2019,08,01,09,21,19.70
2019,08,01,09,22,19.70
2019,08,01,09,23,19.70
2019,08,01,09,24,19.70
2019,08,01,09,25,19.70
2019,08,01,09,26,19.70
2019,08,01,09,27,19.80
2019,08,01,09,28,19.80
2019,08,01,09,29,19.80
2019,08,01,09,30,19.80
2019,08,01,09,31,19.80
2019,08,01,09,32,19.80
2019,08,01,09,33,19.80
2019,08,01,09,34,19.90
2019,08,01,09,35,19.80
2019,08,01,09,36,19.90
2019,08,01,09,37,19.90
2019,08,01,09,38,19.90
2019,08,01,09,39,19.90
2019,08,01,09,40,19.80
2019,08,01,09,41,19.80
2019,08,01,09,42,19.80
2019,08,01,09,43,19.80
2019,08,01,09,44,19.80
2019,08,01,09,45,19.70
2019,08,01,09,46,19.70
2019,08,01,09,47,19.70
2019,08,01,09,48,19.80
2019,08,01,09,49,19.70
2019,08,01,09,50,19.70
2019,08,01,09,51,19.70
2019,08,01,09,52,19.70
2019,08,01,09,53,19.70
2019,08,01,09,54,19.70
2019,08,01,09,55,19.60
2019,08,01,09,56,19.60
2019,08,01,09,57,19.60
2019,08,01,09,58,19.60
2019,08,01,09,59,19.60
2019,08,01,10,00,19.60
2019,08,01,10,01,19.50
2019,08,01,10,02,19.50
2019,08,01,10,03,19.50
2019,08,01,10,04,19.50
2019,08,01,10,05,19.50
2019,08,01,10,06,19.40
2019,08,01,10,07,19.40
2019,08,01,10,08,19.40
2019,08,01,10,09,19.30
2019,08,01,10,10,19.30
2019,08,01,10,11,19.30
2019,08,01,10,12,19.30
2019,08,01,10,13,19.20
2019,08,01,10,14,19.20
2019,08,01,10,15,19.20
2019,08,01,10,16,19.20
2019,08,01,10,17,19.20
2019,08,01,10,18,19.20
2019,08,01,10,19,19.20
2019,08,01,10,20,19.10
2019,08,01,10,21,19.10
2019,08,01,10,22,19.10
2019,08,01,10,23,19.10
2019,08,01,10,24,19.00
2019,08,01,10,25,19.00
2019,08,01,10,26,19.00
2019,08,01,10,27,19.00
2019,08,01,10,28,18.90
2019,08,01,10,29,18.90
2019,08,01,10,30,18.90
2019,08,01,10,31,18.90
2019,08,01,10,32,18.90
2019,08,01,10,33,18.80
2019,08,01,10,34,18.80
2019,08,01,10,35,18.80
2019,08,01,10,36,18.80
2019,08,01,10,37,18.80
2019,08,01,10,38,18.80
2019,08,01,10,39,18.80
2019,08,01,10,40,18.80
2019,08,01,10,41,18.80
2019,08,01,10,42,18.70
2019,08,01,10,43,18.70
2019,08,01,10,44,18.70
2019,08,01,10,45,18.70
2019,08,01,10,46,18.70
2019,08,01,10,47,18.70
2019,08,01,10,48,18.70
2019,08,01,10,49,18.70
2019,08,01,10,50,18.70
2019,08,01,10,51,18.70
2019,08,01,10,52,18.70
2019,08,01,10,53,18.70
2019,08,01,10,54,18.70
2019,08,01,10,55,18.70
2019,08,01,10,56,18.70
2019,08,01,10,57,18.70
2019,08,01,10,58,18.70
2019,08,01,10,59,18.70
2019,08,01,11,00,18.70
2019,08,01,11,01,18.70
2019,08,01,11,02,18.70
2019,08,01,11,03,18.70
2019,08,01,11,04,18.70
2019,08,01,11,05,18.70
2019,08,01,11,06,18.70
2019,08,01,11,07,18.80
2019,08,01,11,08,18.80
2019,08,01,11,09,18.80
2019,08,01,11,10,18.70
2019,08,01,11,11,18.70
2019,08,01,11,12,18.70
2019,08,01,11,13,18.70
2019,08,01,11,14,18.70
2019,08,01,11,15,18.70
2019,08,01,11,16,18.70
2019,08,01,11,17,18.70
2019,08,01,11,18,18.70
2019,08,01,11,19,18.70
2019,08,01,11,20,18.70
2019,08,01,11,21,18.70
2019,08,01,11,22,18.70
2019,08,01,11,23,18.80
2019,08,01,11,24,18.80
2019,08,01,11,25,18.80
2019,08,01,11,26,18.80
2019,08,01,11,27,18.80
2019,08,01,11,28,18.80
2019,08,01,11,29,18.90
2019,08,01,11,30,18.90
2019,08,01,11,31,18.90
2019,08,01,11,32,19.00
2019,08,01,11,33,19.00
2019,08,01,11,34,19.10
2019,08,01,11,35,19.10
2019,08,01,11,36,19.10
2019,08,01,11,37,19.10
2019,08,01,11,38,19.10
2019,08,01,11,39,19.10
2019,08,01,11,40,19.20
2019,08,01,11,41,19.20
2019,08,01,11,42,19.20
2019,08,01,11,43,19.20
2019,08,01,11,44,19.20
2019,08,01,11,45,19.20
2019,08,01,11,46,19.20
2019,08,01,11,47,19.20
2019,08,01,11,48,19.20
2019,08,01,11,49,19.20
2019,08,01,11,50,19.20
2019,08,01,11,51,19.30
2019,08,01,11,52,19.30
2019,08,01,11,53,19.30
2019,08,01,11,54,19.30
2019,08,01,11,55,19.30
2019,08,01,11,56,19.30
2019,08,01,11,57,19.30
2019,08,01,11,58,19.30
2019,08,01,11,59,19.30
2019,08,01,12,00,19.30
2019,08,01,12,01,19.30
2019,08,01,12,02,19.30
2019,08,01,12,03,19.30
2019,08,01,12,04,19.30
2019,08,01,12,05,19.30
2019,08,01,12,06,19.30
2019,08,01,12,07,19.30
2019,08,01,12,08,19.30
2019,08,01,12,09,19.30
2019,08,01,12,10,19.30
2019,08,01,12,11,19.30
2019,08,01,12,12,19.30
2019,08,01,12,13,19.30
2019,08,01,12,14,19.30
2019,08,01,12,15,19.30
2019,08,01,12,16,19.30
2019,08,01,12,17,19.20
2019,08,01,12,18,19.20
2019,08,01,12,19,19.20
2019,08,01,12,20,19.20
2019,08,01,12,21,19.10
2019,08,01,12,22,19.10
2019,08,01,12,23,19.10
2019,08,01,12,24,19.10
2019,08,01,12,25,19.10
2019,08,01,12,26,19.10
2019,08,01,12,27,19.10
2019,08,01,12,28,19.10
2019,08,01,12,29,19.10
2019,08,01,12,30,19.10
2019,08,01,12,31,19.10
2019,08,01,12,32,19.00
2019,08,01,12,33,19.00
2019,08,01,12,34,19.00
2019,08,01,12,35,18.90
2019,08,01,12,36,19.00
2019,08,01,12,37,19.00
2019,08,01,12,38,19.00
2019,08,01,12,39,19.00
2019,08,01,12,40,19.00
2019,08,01,12,41,19.00
2019,08,01,12,42,18.90
2019,08,01,12,43,18.90
2019,08,01,12,44,18.90
2019,08,01,12,45,18.90
2019,08,01,12,46,18.90
2019,08,01,12,47,18.90
2019,08,01,12,48,18.90
2019,08,01,12,49,18.90
2019,08,01,12,50,18.90
2019,08,01,12,51,18.90
2019,08,01,12,52,18.90
2019,08,01,12,53,18.80
2019,08,01,12,54,18.80
2019,08,01,12,55,18.80
2019,08,01,12,56,18.80
2019,08,01,12,57,18.80
2019,08,01,12,58,18.70
2019,08,01,12,59,18.70
2019,08,01,13,00,18.70
2019,08,01,13,01,18.70
2019,08,01,13,02,18.70
2019,08,01,13,03,18.70
2019,08,01,13,04,18.70
2019,08,01,13,05,18.70
2019,08,01,13,06,18.70
2019,08,01,13,07,18.70
2019,08,01,13,08,18.70
2019,08,01,13,09,18.70
2019,08,01,13,10,18.70
2019,08,01,13,11,18.70
2019,08,01,13,12,18.70
2019,08,01,13,13,18.70
2019,08,01,13,14,18.70
2019,08,01,13,15,18.70
2019,08,01,13,16,18.70
2019,08,01,13,17,18.70
2019,08,01,13,18,18.70
2019,08,01,13,19,18.70
2019,08,01,13,20,18.70
2019,08,01,13,21,18.70
2019,08,01,13,22,18.70
2019,08,01,13,23,18.70
2019,08,01,13,24,18.70
2019,08,01,13,25,18.70
2019,08,01,13,26,18.70
2019,08,01,13,27,18.70
2019,08,01,13,28,18.70
2019,08,01,13,29,18.70
2019,08,01,13,30,18.70
2019,08,01,13,31,18.70
2019,08,01,13,32,18.70
2019,08,01,13,33,18.70
2019,08,01,13,34,18.70
2019,08,01,13,35,18.70
2019,08,01,13,36,18.70
2019,08,01,13,37,18.70
2019,08,01,13,38,18.70
2019,08,01,13,39,18.70
2019,08,01,13,40,18.60
2019,08,01,13,41,18.60
2019,08,01,13,42,18.60
2019,08,01,13,43,18.50
2019,08,01,13,44,18.50
2019,08,01,13,45,18.50
2019,08,01,13,46,18.50
2019,08,01,13,47,18.50
2019,08,01,13,48,18.50
2019,08,01,13,49,18.40
2019,08,01,13,50,18.40
2019,08,01,13,51,18.40
2019,08,01,13,52,18.40
2019,08,01,13,53,18.40
2019,08,01,13,54,18.40
2019,08,01,13,55,18.40
2019,08,01,13,56,18.40
2019,08,01,13,57,18.40
2019,08,01,13,58,18.50
2019,08,01,13,59,18.40
2019,08,01,14,00,18.40
2019,08,01,14,01,18.40
2019,08,01,14,02,18.40
2019,08,01,14,03,18.40
2019,08,01,14,04,18.40
2019,08,01,14,05,18.40
2019,08,01,14,06,18.40
2019,08,01,14,07,18.40
2019,08,01,14,08,18.40
2019,08,01,14,09,18.30
2019,08,01,14,10,18.30
2019,08,01,14,11,18.30
2019,08,01,14,12,18.30
2019,08,01,14,13,18.20
2019,08,01,14,14,18.20
2019,08,01,14,15,18.20
2019,08,01,14,16,18.20
2019,08,01,14,17,18.20
2019,08,01,14,18,18.20
2019,08,01,14,19,18.20
2019,08,01,14,20,18.20
2019,08,01,14,21,18.20
2019,08,01,14,22,18.10
2019,08,01,14,23,18.10
2019,08,01,14,24,18.10
2019,08,01,14,25,18.10
2019,08,01,14,26,18.10
2019,08,01,14,27,18.10
2019,08,01,14,28,18.10
2019,08,01,14,29,18.10
2019,08,01,14,30,18.10
2019,08,01,14,31,18.10
2019,08,01,14,32,18.10
2019,08,01,14,33,18.00
2019,08,01,14,34,18.10
2019,08,01,14,35,18.00
2019,08,01,14,36,18.00
2019,08,01,14,37,18.00
2019,08,01,14,38,18.00
2019,08,01,14,39,18.00
2019,08,01,14,40,18.00
2019,08,01,14,41,18.00
2019,08,01,14,42,17.90
2019,08,01,14,43,17.90
2019,08,01,14,44,17.90
2019,08,01,14,45,17.90
2019,08,01,14,46,18.00
2019,08,01,14,47,18.00
2019,08,01,14,48,18.00
2019,08,01,14,49,18.00
2019,08,01,14,50,18.00
2019,08,01,14,51,18.00
2019,08,01,14,52,18.00
2019,08,01,14,53,17.90
2019,08,01,14,54,17.90
2019,08,01,14,55,17.90
2019,08,01,14,56,18.00
2019,08,01,14,57,18.00
2019,08,01,14,58,18.00
2019,08,01,14,59,18.10
2019,08,01,15,00,18.10
2019,08,01,15,01,18.10
2019,08,01,15,02,18.10
2019,08,01,15,03,18.10
2019,08,01,15,04,18.10
2019,08,01,15,05,18.10
2019,08,01,15,06,18.10
2019,08,01,15,07,18.10
2019,08,01,15,08,18.10
2019,08,01,15,09,18.10
2019,08,01,15,10,18.10
2019,08,01,15,11,18.10
2019,08,01,15,12,18.10
2019,08,01,15,13,18.10
2019,08,01,15,14,18.20
2019,08,01,15,15,18.20
2019,08,01,15,16,18.20
2019,08,01,15,17,18.20
2019,08,01,15,18,18.20
2019,08,01,15,19,18.10
2019,08,01,15,20,18.10
2019,08,01,15,21,18.10
2019,08,01,15,22,18.20
2019,08,01,15,23,18.20
2019,08,01,15,24,18.20
2019,08,01,15,25,18.20
2019,08,01,15,26,18.20
2019,08,01,15,27,18.20
2019,08,01,15,28,18.20
2019,08,01,15,29,18.20
2019,08,01,15,30,18.30
2019,08,01,15,31,18.30
2019,08,01,15,32,18.30
2019,08,01,15,33,18.30
2019,08,01,15,34,18.30
2019,08,01,15,35,18.40
2019,08,01,15,36,18.40
2019,08,01,15,37,18.40
2019,08,01,15,38,18.50
2019,08,01,15,39,18.50
2019,08,01,15,40,18.50
2019,08,01,15,41,18.60
2019,08,01,15,42,18.60
2019,08,01,15,43,18.60
2019,08,01,15,44,18.60
2019,08,01,15,45,18.60
2019,08,01,15,46,18.60
2019,08,01,15,47,18.60
2019,08,01,15,48,18.60
2019,08,01,15,49,18.60
2019,08,01,15,50,18.60
2019,08,01,15,51,18.60
2019,08,01,15,52,18.60
2019,08,01,15,53,18.60
2019,08,01,15,54,18.60
2019,08,01,15,55,18.60
2019,08,01,15,56,18.60
2019,08,01,15,57,18.60
2019,08,01,15,58,18.60
2019,08,01,15,59,18.70
2019,08,01,16,00,18.70
2019,08,01,16,01,18.70
2019,08,01,16,02,18.60
2019,08,01,16,03,18.60
2019,08,01,16,04,18.60
2019,08,01,16,05,18.50
2019,08,01,16,06,18.50
2019,08,01,16,07,18.50
2019,08,01,16,08,18.50
2019,08,01,16,09,18.40
2019,08,01,16,10,18.40
2019,08,01,16,11,18.40
2019,08,01,16,12,18.40
2019,08,01,16,13,18.40
2019,08,01,16,14,18.40
2019,08,01,16,15,18.40
2019,08,01,16,16,18.30
2019,08,01,16,17,18.30
2019,08,01,16,18,18.30
2019,08,01,16,19,18.30
2019,08,01,16,20,18.20
2019,08,01,16,21,18.20
2019,08,01,16,22,18.20
2019,08,01,16,23,18.20
2019,08,01,16,24,18.20
2019,08,01,16,25,18.20
2019,08,01,16,26,18.20
2019,08,01,16,27,18.20
2019,08,01,16,28,18.20
2019,08,01,16,29,18.10
2019,08,01,16,30,18.10
2019,08,01,16,31,18.20
2019,08,01,16,32,18.10
2019,08,01,16,33,18.20
2019,08,01,16,34,18.20
2019,08,01,16,35,18.20
2019,08,01,16,36,18.20
2019,08,01,16,37,18.20
2019,08,01,16,38,18.30
2019,08,01,16,39,18.30
2019,08,01,16,40,18.30
2019,08,01,16,41,18.30
2019,08,01,16,42,18.30
2019,08,01,16,43,18.30
2019,08,01,16,44,18.30
2019,08,01,16,45,18.30
2019,08,01,16,46,18.30
2019,08,01,16,47,18.30
2019,08,01,16,48,18.30
2019,08,01,16,49,18.20
2019,08,01,16,50,18.30
2019,08,01,16,51,18.30
2019,08,01,16,52,18.30
2019,08,01,16,53,18.30
2019,08,01,16,54,18.30
2019,08,01,16,55,18.30
2019,08,01,16,56,18.30
2019,08,01,16,57,18.40
2019,08,01,16,58,18.30
2019,08,01,16,59,18.30
2019,08,01,17,00,18.30
2019,08,01,17,01,18.30
2019,08,01,17,02,18.30
2019,08,01,17,03,18.30
2019,08,01,17,04,18.30
2019,08,01,17,05,18.30
2019,08,01,17,06,18.30
2019,08,01,17,07,18.30
2019,08,01,17,08,18.30
2019,08,01,17,09,18.30
2019,08,01,17,10,18.40
2019,08,01,17,11,18.40
2019,08,01,17,12,18.40
2019,08,01,17,13,18.40
2019,08,01,17,14,18.40
2019,08,01,17,15,18.40
2019,08,01,17,16,18.40
2019,08,01,17,17,18.40
2019,08,01,17,18,18.40
2019,08,01,17,19,18.40